Regional Weather Roundup
Issued by NWS Cleveland, OH

Home | Current Version | Previous Version | Text Only | Print | Product List | Glossary Off
Versions: 1 2 3 4 5 6 7 8 9 10 11 12 13 14 15 16 17 18 19 20 21 22 23 24 25 26 27 28 29 30 31 32 33 34 35 36 37 38 39 40 41 42 43 44 45 46 47 48 49 50

000
ASUS41 KCLE 280400
RWRCLE
OHIO REGIONAL WEATHER ROUNDUP
NATIONAL WEATHER SERVICE WILMINGTON, OH
1200 AM EDT THU AUG 28 2014

NOTE: "FAIR" INDICATES FEW OR NO CLOUDS BELOW 12,000 FEET WITH NO
SIGNIFICANT WEATHER AND/OR OBSTRUCTIONS TO VISIBILITY.

OHZ001>008-015>018-024>027-034-035-043-044-280500-
   NORTHWEST OHIO

CITY           SKY/WX    TMP DP  RH WIND       PRES   REMARKS
DEFIANCE       MOCLDY    67  61  81 CALM      30.11S
FINDLAY        MOCLDY    70  63  78 E6        30.09S
TOLEDO EXPRESS MOCLDY    64  59  83 CALM      30.10S
TOLEDO METCALF MOCLDY    71  60  68 NE5       30.11R
LIMA           PTCLDY    68  65  90 NE6       30.09F
$$

OHZ009>014-019>023-028>033-038-089-280500-
   NORTHEAST OHIO

CITY           SKY/WX    TMP DP  RH WIND       PRES   REMARKS
CLE-HOPKINS    MOCLDY    68  59  73 NE12      30.12S
CLE-LAKEFRONT  MOCLDY    68  58  70 NE10      30.10R
CUY CO. ARPT   NOT AVBL
LORAIN-ELYRIA  CLOUDY    69  60  73 NE8       30.10F
ASHTABULA      PTCLDY    61  54  77 CALM      30.11S
AKRON-CANTON   CLOUDY    66  59  78 NE8       30.11R
WOOSTER        NOT AVBL
MANSFIELD      PTCLDY    64  62  93 CALM      30.11S
YOUNGSTOWN     MOCLDY    63  57  81 N6        30.10S
$$

OHZ042-051>053-060>062-070>072-077>081-280500-
  SOUTHWEST OHIO

CITY           SKY/WX    TMP DP  RH WIND       PRES   REMARKS
CINC-COVINGTON PTCLDY    77  69  76 N7        30.08R
CINC-LUNKEN    PTCLDY    78  70  76 N8        30.06R
HAMILTON       CLEAR     72  70  93 CALM      30.08R
DAYTON         NOT AVBL
WRIGHT-PAT AFB CLEAR     72  68  88 NE7       30.08R
DAYTON GENERAL CLEAR     73  66  78 NE5       30.07R
WILMINGTON     CLEAR     70  67  90 N3        30.08R
$$

OHZ036-037-039>041-045>050-054>059-063>069-073>076-082>088-280500-
  CENTRAL AND SOUTHEAST OHIO

CITY           SKY/WX    TMP DP  RH WIND       PRES   REMARKS
COLUMBUS       CLEAR     72  62  71 NE8       30.07R
OSU AIRPORT    CLEAR     69  62  78 NE6       30.08S
BOLTON FIELD   NOT AVBL
RICKENBACK AFB NOT AVBL
NEWARK         CLEAR     69  63  81 NE3       30.08R
MARION         PTCLDY    64  61  90 NE6       30.10S
LANCASTER      CLEAR     69  64  84 N3        30.08R
ZANESVILLE     CLEAR     69  63  81 N5        30.07S
NEW PHILLY     PTCLDY    66  61  84 CALM      30.10R
$$



USA.gov is the U.S. government's official web portal to all federal, state and local government web resources and services.